Location: Blackwall
(51.5097°N, 0.0016°W)
Time: 00:48:11
(UTC+00:00)

CSL-04 DEB - Pass Details

Date: 15 May 2026
Orbit: 458 x 501 km, 98.7° (Epoch: 9 June)

Event Time Altitude Azimuth Distance (km) Brightness Sun altitude
Exits shadow 23:10:55 43° 218° (SW) 697 4.5 -18.7°
Maximum altitude 23:11:37 51° 258° (WSW) 625 4.5 -18.8°
Drops below altitude 10° 23:15:11 10° 335° (NNW) 1,703 8.0 -18.9°
Sets 23:17:20 0° 341° (NNW) 2,598 9.4 -18.9°
